Weather History for Adrian, MI

Change the Weather History Date:

Monday, June 24, 2013

  Actual Average Record
Temperature  
Mean Temperature 75 °F -  
Max Temperature 84 °F 80 °F 94 °F (1952)
Min Temperature 66 °F 57 °F 43 °F (1986)
Cooling Degree Days 10    
Growing Degree Days 25 (Base 50)    
Moisture  
Dew Point 67 °F    
Average Humidity 72    
Maximum Humidity 93    
Minimum Humidity 55    
Precipitation  
Precipitation 0.06 in - - ()
Sea Level Pressure  
Sea Level Pressure 30.02 in    
Wind  
Wind Speed 7 mph (WSW)    
Max Wind Speed 12 mph    
Max Gust Speed 17 mph    
Visibility 8 miles    
Events      
Averages and records for this station are not official NWS values.
T = Trace of Precipitation, MM = Missing Value Source: NWS Daily Summary

Daily Weather History Graph

Daily Weather History Graph

Search for Another Location

Airport:

Trip Planner

Search our weather history database for the weather conditions in past years. The results will help you decide how hot, cold, wet, or windy it might be!

Date:

Astronomy

Jun. 24, 2013 Rise Set
Actual Time 6:02 AM EDT 9:15 PM EDT
Civil Twilight 5:27 AM EDT 9:49 PM EDT
Nautical Twilight 4:43 AM EDT 10:33 PM EDT
Astronomical Twilight 3:50 AM EDT 11:27 PM EDT
Moon 10:14 PM EDT (6/24) 7:30 AM EDT (6/24)
Length of Visible Light 16h 21m
Length of Day
15h 13m
Full, 98% of the Moon is Illuminated
Jun 24
Full
Jun 30
Last Quarter
Jul 8
New
Jul 15
First Quarter
Jul 22
Full

Hourly Weather History & Observations

Time (EDT) Temp. Heat Index Dew Point Humidity Pressure Visibility Wind Dir Wind Speed Gust Speed Precip Events Conditions
12:53 AM 71.1 °F - 64.9 °F 81% 30.06 in 10.0 mi WSW 6.9 mph - N/A   Clear
1:53 AM 70.0 °F - 64.9 °F 84% 30.06 in 10.0 mi WSW 5.8 mph - N/A   Clear
2:53 AM 70.0 °F - 64.9 °F 84% 30.06 in 10.0 mi West 5.8 mph - N/A   Clear
3:53 AM 69.1 °F - 64.9 °F 87% 30.07 in 10.0 mi South 4.6 mph - N/A   Clear
4:53 AM 66.9 °F - 64.0 °F 90% 30.07 in 8.0 mi SSW 3.5 mph - N/A   Clear
5:53 AM 66.0 °F - 64.0 °F 93% 30.07 in 6.0 mi SW 3.5 mph - N/A   Clear
6:53 AM 68.0 °F - 66.0 °F 93% 30.07 in 3.0 mi SW 3.5 mph - N/A   Clear
7:53 AM 71.1 °F - 66.9 °F 87% 30.08 in 4.0 mi WSW 6.9 mph - N/A   Clear
8:53 AM 73.9 °F - 68.0 °F 82% 30.09 in 6.0 mi SW 9.2 mph - N/A   Haze
9:53 AM 77.0 °F - 68.0 °F 74% 30.09 in 8.0 mi WSW 10.4 mph 17.3 mph N/A   Clear
10:53 AM 79.0 °F - 68.0 °F 69% 30.08 in 8.0 mi West 11.5 mph 17.3 mph N/A   Clear
11:53 AM 81.0 °F 84.1 °F 69.1 °F 67% 30.08 in 8.0 mi WSW 10.4 mph - N/A   Partly Cloudy
12:53 PM 80.1 °F 82.9 °F 69.1 °F 69% 30.08 in 8.0 mi West 10.4 mph - N/A   Mostly Cloudy
1:53 PM 81.0 °F 83.8 °F 68.0 °F 65% 30.05 in 10.0 mi West 10.4 mph - N/A   Clear
2:53 PM 82.0 °F 84.5 °F 66.9 °F 60% 30.02 in 10.0 mi West 8.1 mph - N/A   Clear
3:53 PM 84.0 °F 87.0 °F 68.0 °F 58% 29.99 in 10.0 mi Variable 5.8 mph - N/A   Clear
4:53 PM 84.0 °F 86.5 °F 66.9 °F 56% 30.00 in 10.0 mi WSW 9.2 mph - N/A   Clear
5:53 PM 84.9 °F 87.6 °F 66.9 °F 55% 29.96 in 10.0 mi WSW 8.1 mph - N/A   Clear
6:53 PM 84.0 °F 86.5 °F 66.9 °F 56% 29.97 in 10.0 mi SW 11.5 mph - N/A   Partly Cloudy
7:53 PM 84.0 °F 86.3 °F 66.0 °F 55% 29.96 in 10.0 mi West 8.1 mph - N/A   Clear
8:53 PM 81.0 °F 83.3 °F 66.9 °F 62% 29.96 in 10.0 mi WSW 6.9 mph - N/A   Clear
9:27 PM 80.6 °F 82.7 °F 66.2 °F 61% 29.97 in 1.8 mi WSW 5.8 mph - N/A   Haze
9:34 PM 78.8 °F - 66.2 °F 65% 29.97 in 1.2 mi WSW 8.1 mph - N/A   Haze
9:38 PM 78.8 °F - 66.2 °F 65% 29.97 in 2.0 mi WSW 10.4 mph - N/A   Haze
9:53 PM 79.0 °F - 66.0 °F 64% 29.96 in 10.0 mi SW 9.2 mph - N/A   Clear
10:53 PM 78.1 °F - 66.0 °F 66% 29.96 in 9.0 mi WSW 9.2 mph - N/A   Partly Cloudy
11:53 PM 71.1 °F - 69.1 °F 93% 29.97 in 10.0 mi West 5.8 mph - 0.06 in   Clear